Wind_Speed
58 59 59 59 59 60 60 61 61 61 61 61 60 59 59 58 57 56 55 54 53 52 52 52 52 52 53 53 53 53 53 53 53 53 53 52 52 51 51 51 50 50 49 48 48 47 46 46 45 44 42 41 40 39 38 37 36 35 35 34 34 34 33 33 33 33 33 33 33 33 33 33 33 33 33 32 32 32 31 31 30 30 29 29 29 29
61 62 63 63 63 63 63 63 62 61 61 61 60 59 58 57 56 56 54 53 52 51 51 51 51 52 52 53 53 53 53 53 53 53 53 52 52 51 51 50 50 49 49 48 47 47 46 45 44 43 41 40 39 37 37 36 35 35 34 34 34 34 33 33 33 33 33 33 33 34 34 33 33 33 33 33 32 32 32 31 30 30 29 29 29 29
61 62 63 64 64 63 63 62 61 59 58 59 59 58 57 56 55 54 53 52 51 51 50 50 51 51 52 53 53 53 54 54 54 53 53 52 52 51 50 50 49 49 48 47 46 46 45 44 43 42 40 39 38 37 36 35 35 34 34 34 34 34 34 33 33 33 33 34 34 34 34 34 34 34 33 33 33 32 32 31 30 30 29 29 29 29
60 61 62 63 63 63 62 61 59 58 57 57 56 56 55 54 54 53 52 51 51 50 50 50 51 51 52 53 53 54 54 54 54 54 53 52 52 51 50 50 49 48 47 46 46 45 44 43 42 41 39 38 37 36 35 35 34 34 34 35 35 34 34 34 34 34 34 34 34 34 34 34 34 34 34 33 33 32 32 31 30 30 29 29 30 30
59 59 60 61 61 62 62 61 59 58 57 56 56 55 54 54 53 52 52 51 51 50 50 51 51 52 53 53 54 54 54 54 54 53 53 52 51 50 50 49 48 48 47 46 45 44 43 42 41 40 38 37 36 35 35 34 34 34 35 35 35 35 35 34 34 34 34 34 34 34 34 34 34 34 34 33 33 32 32 31 31 30 30 30 30 30
58 58 58 58 59 59 60 59 58 58 57 56 56 55 54 54 53 53 52 52 51 51 51 51 52 52 53 53 53 53 53 54 54 53 53 52 51 50 49 48 48 47 46 45 44 43 42 41 40 38 37 36 35 35 34 34 34 35 35 35 35 35 35 35 34 34 34 34 35 35 35 35 34 34 34 34 33 33 32 31 31 30 30 30 30 31
56 56 56 56 56 57 57 57 57 56 56 56 56 55 54 54 53 53 53 52 52 52 52 52 52 52 53 53 53 53 53 53 53 53 52 51 50 49 49 48 47 46 45 44 43 42 41 40 39 37 36 35 35 34 34 34 35 35 35 35 35 35 35 35 35 35 35 35 35 35 35 35 34 34 34 34 33 32 32 32 31 31 31 31 31 31
55 55 54 54 54 55 55 55 55 55 55 55 55 55 54 54 54 53 53 53 53 52 52 52 52 52 52 52 52 53 53 53 53 53 52 51 50 49 48 47 46 45 44 43 42 41 40 39 37 36 35 35 34 34 34 35 35 35 35 36 35 35 35 35 35 35 35 35 35 35 35 35 34 34 34 33 33 32 32 32 31 31 31 31 32 31
53 53 53 53 53 53 53 54 55 54 54 54 54 54 54 54 54 54 54 53 53 53 52 52 52 52 52 52 52 53 53 53 53 52 51 50 49 48 47 46 45 45 44 43 41 40 39 37 36 35 35 34 34 34 35 35 35 35 36 36 35 35 35 36 35 35 35 35 35 35 35 34 34 34 34 33 33 32 32 32 32 32 32 32 32 32
53 52 52 52 52 52 52 53 54 54 53 53 53 53 53 53 53 53 53 54 53 53 52 52 52 53 53 53 53 53 53 53 52 51 50 49 48 47 47 46 45 44 43 42 40 39 38 37 36 35 34 34 34 35 35 35 35 36 36 35 35 35 36 36 35 35 34 34 34 34 34 34 34 34 33 33 33 32 32 32 32 33 33 33 32 32
52 52 51 51 51 51 51 51 52 53 53 52 52 52 53 52 52 52 53 53 53 53 52 52 52 52 52 53 53 53 53 52 52 51 49 48 48 47 46 45 44 43 42 40 39 38 37 36 35 34 34 34 35 35 35 35 36 36 36 35 35 36 36 36 35 35 34 34 34 34 34 34 34 33 33 33 32 32 32 32 33 33 33 33 32 32
52 51 50 50 50 50 50 50 51 51 51 51 51 51 52 52 51 51 51 52 53 52 52 51 52 52 52 52 53 53 53 52 50 50 49 48 47 46 45 44 43 42 40 39 37 36 35 35 34 34 34 35 35 35 35 36 36 36 35 35 36 36 36 35 35 34 34 34 34 34 34 33 33 33 33 32 32 32 32 33 33 34 34 33 32 31
51 50 49 49 49 49 49 49 49 50 50 50 49 49 50 51 51 50 50 51 51 51 51 51 51 52 52 52 52 52 52 51 50 49 48 47 46 45 44 43 41 40 38 37 36 35 35 34 34 34 35 35 35 35 35 36 35 35 35 35 36 36 35 35 34 34 34 34 33 33 33 33 33 32 32 32 32 32 33 33 34 34 34 33 32 31
50 49 48 48 48 48 47 47 48 48 48 48 48 48 48 49 49 49 49 49 50 50 50 50 51 51 52 52 51 51 50 49 49 48 47 46 45 44 42 41 40 38 36 35 35 34 34 34 34 35 35 35 35 36 35 35 35 35 35 35 35 35 35 34 34 34 33 33 33 33 32 32 32 32 32 31 32 32 33 34 34 34 34 32 31 31
49 48 47 47 47 46 46 46 46 46 46 46 46 46 47 47 48 47 48 48 49 49 49 49 50 50 50 50 49 49 48 48 47 46 46 45 44 43 41 39 38 36 35 34 34 34 34 34 34 35 35 35 35 35 35 35 35 35 35 35 35 34 34 34 33 33 33 33 33 32 32 32 31 31 31 31 32 33 34 35 35 34 33 32 31 31
48 47 46 46 46 45 45 44 44 44 44 45 45 45 45 46 46 47 47 47 48 48 48 48 49 49 49 48 48 47 47 47 46 45 44 44 43 41 39 37 36 35 34 33 34 34 34 34 34 34 34 35 35 35 35 35 35 35 34 34 34 34 34 33 33 33 33 32 32 32 31 31 30 30 30 31 32 34 35 35 35 34 33 32 32 32
47 46 46 45 45 45 44 43 43 43 43 43 43 44 44 45 45 46 46 47 47 48 48 48 48 48 48 48 48 47 46 46 45 44 43 42 40 38 36 35 34 34 33 33 33 34 34 34 34 34 34 34 35 35 35 34 34 34 34 34 34 34 33 33 33 33 32 32 31 31 30 30 29 30 30 31 33 34 35 35 35 34 33 32 32 32
47 46 45 45 44 44 43 42 42 42 42 42 43 43 44 44 45 45 46 47 47 48 48 49 49 49 49 48 47 47 45 44 43 42 41 39 37 36 34 33 33 33 33 33 34 34 34 34 34 34 34 34 34 34 34 34 34 34 34 33 33 33 33 33 33 32 32 31 30 29 29 29 29 30 31 32 33 34 35 35 34 33 33 32 32 32
47 46 45 44 44 43 43 42 41 41 41 42 43 44 44 45 45 46 46 47 47 48 48 49 49 48 48 47 46 45 43 42 41 39 38 36 35 34 32 32 32 33 33 33 34 34 34 34 34 34 34 34 34 34 34 34 34 33 33 33 33 33 33 33 32 32 31 30 29 28 28 29 29 30 31 32 33 34 34 34 33 33 32 32 31 31
47 46 45 45 44 43 43 42 42 42 42 43 44 44 45 45 45 46 46 46 47 47 47 47 47 46 45 44 43 42 40 39 37 36 35 34 33 32 31 32 32 33 33 33 34 34 34 35 35 34 34 34 34 34 34 33 33 33 32 32 32 32 33 32 32 31 29 28 28 28 28 29 30 30 31 32 32 33 34 34 33 32 31 31 31 31
47 46 46 45 44 44 43 43 43 43 44 44 45 45 46 46 45 45 45 45 45 45 45 44 43 43 42 41 39 38 37 35 34 34 33 32 32 32 31 32 32 33 33 33 34 34 35 35 35 34 34 34 34 34 33 33 32 32 32 32 32 32 32 32 31 30 28 28 28 28 29 30 30 31 31 32 33 33 34 33 33 31 31 30 30 30
47 47 46 46 45 44 44 44 44 44 45 45 46 46 46 46 45 45 44 43 43 42 41 40 40 39 38 37 36 35 34 33 33 32 32 32 32 32 32 32 32 33 33 34 34 34 35 35 35 34 34 34 33 33 33 32 32 32 32 32 32 32 31 31 30 29 28 28 28 29 29 30 31 31 32 33 33 34 34 33 32 30 29 29 29 29
48 47 47 46 45 45 45 45 45 45 45 45 46 46 46 45 45 44 43 41 40 40 39 38 37 36 35 35 34 34 33 32 32 32 32 32 32 32 32 33 33 34 34 34 34 35 35 35 34 34 34 33 33 33 32 32 32 31 31 31 31 31 30 29 29 28 28 28 29 29 30 30 31 32 33 33 34 33 32 31 30 29 28 28 28 28
48 48 47 46 46 45 45 45 45 45 45 45 45 45 45 44 43 42 41 40 39 38 37 36 35 35 34 33 33 33 33 33 33 33 33 33 33 33 33 33 34 34 34 34 34 35 35 35 34 34 33 33 32 32 32 31 31 31 30 30 29 28 28 28 27 27 28 28 28 29 30 31 32 33 33 33 32 31 30 28 28 27 27 27 27 27
49 48 47 46 46 46 45 45 45 45 45 45 45 45 44 43 42 41 40 39 38 37 36 35 35 34 34 33 33 34 34 33 33 34 34 34 34 34 34 34 34 35 34 34 35 35 35 34 34 33 33 32 32 31 31 31 30 29 28 28 27 26 26 26 26 26 27 27 28 29 31 32 32 32 31 30 29 28 27 26 26 26 26 26 26 27
49 48 47 46 46 46 46 46 46 46 46 45 45 45 44 43 42 41 40 38 37 37 36 36 35 34 34 34 34 34 34 34 34 34 34 34 34 35 35 35 35 35 35 34 34 34 34 34 33 32 32 32 31 31 31 30 29 28 27 26 25 25 26 26 26 26 27 28 29 30 31 31 30 29 28 27 26 25 25 24 25 25 25 26 26 26
50 49 48 47 46 46 46 46 46 46 46 45 45 45 44 43 42 41 40 39 38 37 36 36 35 35 35 35 35 35 35 35 35 35 35 35 35 35 35 35 35 35 35 34 34 34 33 33 32 32 31 31 31 30 30 30 29 27 26 26 26 26 27 27 27 27 28 29 30 30 30 29 27 26 25 24 23 23 23 24 24 25 25 26 26 26
50 49 48 47 46 46 46 46 45 45 45 45 45 45 44 43 42 41 40 39 38 37 37 36 36 35 35 35 35 35 35 35 35 35 35 35 36 36 36 35 35 35 34 34 34 33 32 32 31 31 31 31 30 30 30 29 28 27 26 26 27 28 29 29 29 29 29 30 30 29 27 26 24 23 22 22 22 23 23 24 24 25 25 25 26 26
51 50 49 48 47 46 46 45 45 45 45 45 45 45 44 43 42 41 40 39 38 38 37 37 36 36 36 36 36 36 36 36 36 36 36 36 36 36 36 35 35 35 34 33 33 32 32 31 31 31 30 30 30 30 30 29 28 28 27 27 28 29 30 30 30 29 29 28 27 26 24 22 21 21 21 21 22 23 23 24 24 25 25 25 25 25
51 51 50 48 47 46 46 45 45 45 45 45 45 44 44 43 42 41 40 39 39 38 38 37 37 36 36 36 36 36 36 36 36 36 36 36 36 36 35 35 35 34 33 33 32 31 31 31 31 30 30 30 30 30 29 29 28 28 29 29 30 30 30 29 28 27 26 25 24 22 21 20 20 20 21 21 22 23 23 24 24 24 25 24 24 24
51 51 50 49 48 47 46 45 45 45 45 45 45 44 44 43 42 41 40 40 39 38 38 38 37 37 37 37 37 37 37 37 37 37 37 36 36 35 35 34 34 33 32 32 31 31 30 30 30 30 30 30 29 29 29 29 29 30 30 31 31 30 29 28 26 25 23 22 21 20 19 19 20 20 21 22 22 23 23 24 24 24 24 24 24 23
51 51 50 49 48 47 47 46 45 45 45 45 45 44 44 43 42 41 41 40 39 39 39 38 38 37 37 37 37 37 37 37 37 37 36 36 36 35 34 34 33 32 32 31 30 30 30 30 30 30 29 29 29 29 29 30 31 31 31 31 30 29 27 26 24 23 21 20 20 19 19 20 20 21 22 22 23 23 23 23 24 23 23 23 23 23
51 51 51 50 49 48 47 46 45 45 45 45 45 44 44 43 42 42 41 40 40 39 39 39 38 38 38 38 38 38 38 38 37 37 36 36 35 34 33 33 32 31 31 30 30 29 29 29 29 29 29 29 29 30 30 31 31 31 30 29 28 26 25 24 22 21 20 20 19 19 20 20 21 21 22 22 23 23 23 23 23 23 23 23 23 22
51 51 51 50 49 48 48 47 46 46 45 45 45 45 44 43 43 42 41 41 40 40 40 39 39 39 38 38 38 38 38 38 37 36 35 35 34 33 33 32 31 30 30 29 29 29 29 29 29 29 29 30 30 31 31 31 31 30 28 27 25 24 23 22 21 20 20 20 20 20 21 21 21 22 22 23 23 23 23 23 23 23 23 22 22 22
51 51 51 50 50 49 48 47 47 46 46 46 46 45 44 44 43 42 42 41 41 40 40 40 39 39 39 38 38 38 38 37 37 36 35 34 33 32 32 31 30 30 29 29 29 29 29 29 29 30 30 31 31 31 31 30 29 28 26 25 24 23 22 21 21 20 20 20 21 21 21 22 22 22 23 23 23 23 23 23 23 23 22 22 22 22
51 51 51 50 50 49 48 48 47 47 47 46 46 45 45 44 43 43 42 41 41 41 40 40 39 39 39 38 38 38 37 37 36 34 33 32 32 31 31 30 30 30 29 29 29 29 29 30 30 31 31 32 31 31 30 29 28 26 25 23 22 22 21 21 21 21 21 21 21 22 22 22 22 23 23 23 23 23 23 23 22 22 22 22 22 21
50 50 50 50 50 49 49 48 48 47 47 47 46 46 45 44 43 43 42 42 41 41 40 40 39 39 39 38 38 37 37 36 34 33 32 31 31 31 30 30 30 30 30 29 29 30 30 31 31 32 32 32 31 29 28 27 26 24 23 22 22 21 21 21 21 22 22 22 22 22 22 22 23 23 23 23 23 23 23 22 22 22 22 21 21 21
50 50 50 50 49 49 49 48 48 48 47 47 46 46 45 44 43 43 42 41 41 40 40 39 39 39 38 38 37 37 36 34 33 32 31 31 31 31 31 31 31 30 30 30 30 30 31 32 32 32 32 31 30 28 26 25 24 23 22 22 22 22 22 22 22 22 22 22 22 22 22 23 23 23 23 23 23 22 22 22 22 21 21 21 21 21
49 49 49 49 49 48 48 48 48 48 47 47 46 45 44 44 43 42 42 41 41 40 40 39 39 38 38 37 36 35 34 33 32 31 31 31 31 31 31 31 31 31 30 30 31 31 32 32 32 32 31 30 28 27 25 24 23 23 22 22 22 22 22 22 22 22 22 22 22 22 23 23 23 23 23 22 22 22 22 21 21 21 21 21 21 22
49 48 48 48 47 47 47 47 47 47 47 46 46 45 44 43 42 42 41 40 40 39 39 38 38 38 37 36 35 34 33 31 31 30 31 31 32 32 31 31 31 31 31 31 31 32 32 32 32 31 30 28 26 25 24 23 23 22 22 22 22 22 22 23 23 23 23 23 23 23 23 23 23 22 22 22 22 22 21 21 21 21 22 22 22 22
47 46 46 45 45 45 45 45 46 46 46 45 45 44 43 42 41 41 40 40 39 39 38 38 37 37 36 35 34 33 32 31 31 30 31 31 31 31 31 31 31 31 31 31 32 32 32 32 31 30 28 27 26 25 24 23 23 22 23 23 23 23 23 23 23 23 23 23 23 23 23 23 22 22 22 22 22 21 22 22 22 22 22 22 22 22
45 43 42 42 43 43 43 44 44 44 44 44 43 42 41 41 40 40 40 39 39 38 38 37 36 36 35 34 33 32 32 31 31 30 31 31 30 30 30 30 31 31 31 32 32 32 32 31 30 29 28 26 25 24 23 23 23 23 23 23 23 23 23 23 24 23 23 23 23 23 23 22 22 22 22 22 22 22 22 22 22 22 22 23 23 23
42 41 41 42 43 43 43 43 43 43 43 43 42 41 40 40 39 39 39 39 38 37 37 36 36 35 34 33 32 32 31 31 31 30 30 30 30 30 30 31 31 32 32 32 32 31 31 30 29 28 27 26 25 24 24 23 23 23 24 24 24 24 24 24 24 24 23 23 23 23 23 22 22 22 22 22 22 22 22 23 23 23 23 23 23 23
41 41 42 44 45 45 44 43 43 43 42 42 41 40 39 39 39 39 38 38 37 37 36 36 35 34 33 32 31 30 31 31 30 30 29 29 30 30 31 31 32 32 32 31 31 30 29 29 28 27 27 26 25 25 24 24 24 24 24 24 24 24 24 24 24 24 24 23 23 23 23 22 22 22 22 22 23 23 23 23 23 24 24 24 24 24
42 42 43 45 46 45 44 43 43 42 42 41 40 39 38 38 38 38 38 37 37 36 35 35 34 33 32 30 30 29 30 30 30 29 29 30 30 31 31 32 32 31 31 30 29 28 28 27 27 27 26 26 25 25 24 24 24 24 24 24 24 24 24 24 24 24 24 23 23 23 23 23 23 23 23 23 23 24 24 24 24 24 24 24 24 24
42 42 42 44 44 44 43 43 43 42 41 40 39 38 38 38 38 38 37 37 36 35 34 34 33 32 30 29 29 29 29 30 30 29 30 30 31 31 31 31 31 30 29 29 28 27 27 27 27 26 26 26 25 25 25 24 24 24 24 24 24 24 24 24 24 24 24 24 23 23 23 23 23 23 23 24 24 24 24 25 25 25 25 25 25 25
42 41 41 41 42 42 42 42 42 41 40 39 38 38 38 38 37 37 37 36 35 34 33 32 31 30 29 28 28 29 30 30 30 30 30 31 31 31 31 30 30 29 28 27 27 26 26 26 26 26 26 26 25 25 25 24 24 24 24 24 24 24 24 24 24 24 24 24 24 24 24 24 24 24 24 24 25 25 25 25 25 25 25 25 25 25
41 39 39 39 40 41 41 41 41 40 39 38 37 37 37 37 37 36 35 34 33 32 32 31 30 29 28 28 29 29 30 30 31 31 31 31 31 31 30 29 29 28 27 27 26 26 26 26 26 26 26 25 25 24 24 24 24 24 23 23 23 23 24 24 24 24 24 24 24 24 25 25 25 25 25 25 25 25 25 25 25 25 25 26 26 26
41 39 38 38 39 39 39 39 39 38 36 36 36 36 36 36 36 35 34 33 32 31 30 29 28 28 28 28 29 30 30 31 31 31 31 31 31 30 29 29 28 27 27 26 26 26 26 26 26 26 26 25 24 24 24 24 23 23 23 23 23 24 24 24 25 25 25 25 25 25 25 25 25 26 26 26 26 26 26 26 26 26 26 26 26 26
41 39 37 37 37 37 37 37 36 35 34 34 34 35 35 35 34 33 32 31 30 30 29 28 28 27 28 29 30 31 31 31 31 31 31 31 30 29 29 28 28 27 27 27 27 26 26 26 26 25 25 24 24 24 23 23 23 23 23 23 24 24 24 25 25 25 26 26 26 26 26 26 26 26 26 26 26 26 26 26 26 26 26 26 27 27
41 39 37 36 37 37 37 36 35 33 33 33 34 34 34 33 31 30 29 29 29 28 28 27 27 28 29 30 31 31 31 32 32 31 31 30 30 29 28 28 27 27 27 27 26 26 26 25 25 24 24 24 23 23 23 23 23 23 23 24 24 25 25 25 26 26 26 26 26 26 26 27 27 27 27 26 26 26 26 26 27 27 27 27 27 27
Wind_Direction
270 271 272 272 272 273 274 276 277 279 280 281 281 281 281 281 281 281 281 281 280 280 279 279 278 278 278 278 278 278 279 279 279 279 279 279 279 278 278 277 276 276 275 275 275 275 274 274 274 274 274 275 276 277 278 279 280 280 280 280 280 279 279 277 276 274 272 271 271 271 271 271 271 271 270 270 269 268 267 267 266 265 265 264 262 261
271 272 274 275 276 276 277 279 280 281 281 282 282 282 283 283 282 282 282 281 280 279 278 277 277 276 276 276 277 277 278 278 279 279 279 278 278 277 277 276 275 275 274 274 274 273 273 272 273 273 274 275 276 277 278 279 279 280 280 279 279 278 277 276 275 273 271 270 270 270 270 270 270 270 269 269 268 267 266 266 265 265 264 263 262 260
272 273 274 275 276 278 279 280 280 281 281 281 281 282 282 282 281 281 281 280 279 278 277 275 275 274 274 275 275 276 276 277 277 278 278 277 277 276 275 275 274 274 273 273 272 272 271 271 272 272 273 275 276 277 278 278 279 279 279 279 278 277 276 275 274 272 271 270 269 269 269 269 269 269 268 268 267 266 265 265 265 264 263 262 261 259
273 273 274 275 276 277 278 279 279 279 279 279 279 280 280 279 279 279 278 277 277 276 275 274 273 273 273 274 274 275 276 276 277 277 277 276 276 275 274 273 273 272 272 271 271 270 270 271 271 272 274 275 276 277 278 278 278 278 278 278 277 277 276 275 273 272 270 269 268 268 268 267 267 267 267 266 266 265 265 264 264 264 263 262 260 258
274 274 274 275 276 277 277 278 278 278 277 277 277 277 277 277 276 276 275 274 274 273 273 272 272 272 272 273 274 274 275 276 276 276 276 275 274 273 273 272 271 271 270 270 269 269 270 271 272 273 274 275 276 277 277 278 278 278 277 277 277 276 275 274 273 272 270 269 268 267 267 266 266 266 266 265 265 265 264 264 264 263 262 261 259 257
275 275 275 275 275 276 276 277 277 276 276 276 275 275 275 275 274 274 273 272 272 271 271 271 271 271 272 273 273 274 275 275 275 275 274 273 273 272 271 270 270 269 269 269 269 269 270 271 272 274 275 276 276 277 277 277 277 277 277 277 276 275 275 274 272 271 270 268 267 266 266 265 265 265 265 264 264 264 263 263 263 262 261 260 258 256
276 276 276 276 276 276 276 276 276 275 275 274 274 274 274 273 273 272 272 271 271 271 270 270 271 271 272 272 273 274 274 274 274 273 272 272 271 270 269 269 269 268 268 268 269 270 271 272 273 274 275 276 276 277 277 277 277 277 277 276 275 275 274 273 272 271 269 268 267 266 265 264 264 264 264 263 263 263 263 263 262 262 261 259 257 255
277 277 277 276 276 276 276 275 275 274 274 274 274 273 273 273 272 272 271 271 271 271 271 271 271 271 272 272 273 273 273 273 272 271 270 270 269 269 268 268 268 268 269 269 270 271 272 273 274 275 275 276 276 277 277 277 277 277 276 276 275 274 274 273 272 270 269 267 266 265 264 264 263 263 263 263 262 262 262 262 262 261 260 258 256 254
277 277 277 276 276 276 276 276 275 274 274 274 274 273 273 273 272 272 272 272 272 272 272 272 272 272 272 272 272 272 271 271 270 269 268 268 267 267 267 267 268 268 269 270 271 272 273 273 274 275 275 276 276 276 277 277 277 276 276 275 274 274 273 272 271 270 268 267 266 265 264 263 263 262 262 262 262 262 261 261 261 260 259 257 255 253
277 276 276 276 276 275 275 275 275 275 274 274 274 273 273 273 273 273 273 273 272 272 272 272 273 273 273 272 271 270 270 269 268 267 266 266 266 266 267 267 268 269 270 271 271 272 273 274 274 275 276 276 276 276 276 276 276 275 275 274 274 273 272 271 270 269 267 266 265 264 263 263 262 262 262 262 261 261 261 261 261 260 258 256 255 253
276 276 276 275 275 275 274 274 274 274 274 274 274 273 273 272 272 272 273 273 273 273 272 272 272 272 272 271 271 269 268 267 266 265 265 265 266 266 267 268 269 270 270 271 272 273 273 274 275 275 276 276 277 276 276 276 275 275 274 273 272 271 271 270 269 268 267 266 265 264 263 263 262 262 262 261 261 261 261 261 260 259 258 256 255 253
276 276 275 275 274 274 274 274 273 273 274 273 273 273 273 272 272 272 273 273 273 273 273 272 272 271 270 270 269 268 267 266 265 265 265 265 266 267 267 268 269 270 271 272 272 273 274 275 276 276 277 277 277 276 276 275 275 274 273 272 271 270 270 269 269 267 266 265 264 264 263 262 262 262 262 261 261 261 261 261 260 259 258 256 255 253
275 275 275 274 274 273 273 273 273 273 273 273 273 273 273 273 273 273 273 272 273 273 272 272 272 271 270 269 268 267 266 266 265 265 265 266 267 267 268 269 270 271 271 272 273 274 275 276 277 277 277 277 276 276 275 274 274 273 272 271 270 270 269 269 268 267 266 265 264 264 263 262 262 262 262 261 261 261 261 261 260 259 258 256 255 253
275 275 274 274 273 273 273 273 273 273 273 273 273 272 272 273 273 273 273 272 272 272 272 271 271 271 270 269 268 267 266 266 266 266 267 267 268 268 269 270 271 271 272 273 274 275 275 276 276 276 276 275 275 274 274 273 273 272 271 271 270 269 269 268 267 267 266 265 264 264 263 262 262 262 262 261 261 261 261 261 260 259 258 257 255 253
274 274 274 273 273 273 273 273 273 273 273 273 272 272 272 272 272 272 272 272 272 272 271 271 271 270 270 269 269 268 268 268 268 268 268 269 269 270 270 271 271 272 273 273 274 275 275 275 275 274 274 274 273 273 273 272 272 271 271 270 269 269 268 268 267 266 266 265 264 264 263 263 262 262 262 261 261 261 261 260 260 259 257 256 254 252
274 274 273 273 273 273 273 273 273 273 273 273 273 272 272 272 272 272 272 272 272 272 272 272 271 271 271 270 270 270 270 270 270 270 270 270 270 270 271 271 272 273 273 274 274 274 274 273 273 273 273 272 272 272 271 271 271 270 270 269 269 268 268 267 266 266 266 265 264 264 263 263 263 262 262 262 261 261 260 260 259 258 257 255 253 251
273 273 273 273 273 273 274 274 274 274 274 274 274 273 272 272 271 271 272 272 272 272 273 273 273 273 272 272 271 271 271 271 271 270 270 270 270 271 271 271 272 273 273 273 273 273 273 272 272 272 272 271 271 271 271 270 270 269 269 268 268 268 267 267 266 266 265 265 264 264 263 263 263 262 262 262 261 261 261 260 259 258 256 253 252 250
272 272 272 273 273 273 274 274 274 275 275 275 275 274 274 273 273 272 272 272 272 272 272 272 272 272 272 272 271 271 270 270 270 270 270 270 270 270 271 271 272 272 273 273 272 272 272 272 272 272 271 271 271 270 270 269 269 269 268 268 268 267 267 266 266 266 265 265 264 264 263 263 262 262 262 262 262 262 262 261 260 258 255 253 251 250
271 271 271 271 271 272 272 272 272 272 272 272 272 272 273 273 273 273 272 272 271 271 271 271 271 270 270 270 270 270 270 269 269 269 269 269 270 270 271 271 271 272 272 272 272 272 272 272 271 271 271 271 270 270 269 269 268 268 268 268 267 267 267 266 266 265 264 264 263 263 263 263 262 262 262 262 263 264 264 263 261 258 255 253 252 251
270 270 269 269 270 270 270 270 269 268 268 268 268 269 269 269 270 270 269 269 269 269 269 269 269 269 269 269 269 269 269 269 269 269 269 270 270 270 270 271 271 271 271 271 271 271 271 271 271 271 271 270 270 269 269 268 268 268 268 268 267 267 267 266 265 264 263 263 262 262 263 263 262 262 262 262 263 264 264 263 261 258 256 254 252 252
269 269 268 268 268 268 268 268 267 267 266 266 266 266 267 267 268 268 268 268 268 268 268 269 269 269 270 270 269 269 269 269 269 269 270 270 270 270 270 270 270 270 271 271 271 271 271 271 271 271 270 269 269 268 268 268 268 268 267 267 267 267 266 266 264 263 262 261 261 261 262 262 262 262 262 262 262 262 263 262 261 259 256 254 253 253
269 268 268 268 267 267 267 267 267 266 266 266 266 267 267 268 269 270 270 270 270 270 270 270 270 270 270 270 270 270 270 270 270 270 270 270 270 271 270 270 270 270 270 271 271 271 270 270 270 270 269 269 268 268 267 267 267 267 267 267 267 267 266 265 263 261 259 259 259 259 260 261 262 262 262 262 261 261 261 261 260 258 256 255 254 253
269 268 268 267 267 267 267 267 267 267 267 267 268 268 269 270 271 272 272 272 272 272 272 272 271 271 270 270 270 270 270 270 270 271 271 271 271 271 271 270 270 270 270 270 270 270 270 269 269 269 268 268 267 267 267 267 267 267 267 267 267 266 265 263 261 259 258 257 257 258 259 260 261 262 262 261 261 260 260 260 259 257 256 254 253 252
268 268 267 267 267 267 267 267 267 267 267 268 268 269 270 271 272 272 273 273 273 272 272 271 271 271 270 270 270 271 271 271 271 271 271 271 272 272 271 271 270 270 270 270 269 269 269 268 268 267 267 266 266 266 266 266 266 267 267 267 267 266 264 262 260 258 256 256 256 257 259 260 261 261 262 261 261 260 259 259 257 256 255 253 252 251
268 267 267 267 266 266 266 267 267 267 267 268 269 270 271 271 272 272 272 272 272 272 271 271 271 271 270 270 271 271 271 271 271 272 272 272 272 272 271 271 270 270 270 269 268 268 267 267 266 266 265 265 265 265 265 265 265 265 266 266 266 265 264 262 259 258 257 256 257 258 260 261 262 262 262 261 260 260 259 257 256 255 254 252 251 250
267 267 266 266 266 266 266 266 267 267 267 268 269 269 270 271 271 272 272 272 271 271 271 271 271 271 271 271 271 271 271 271 271 271 272 272 272 271 271 271 270 270 269 268 267 267 266 266 265 264 263 263 264 264 264 264 264 263 264 264 265 265 264 262 260 259 258 258 259 260 261 262 262 262 261 260 259 258 257 256 255 253 252 251 250 249
267 266 266 266 266 266 266 266 266 267 267 268 268 269 270 271 271 271 271 271 271 270 270 270 270 271 271 271 271 271 271 271 271 271 271 271 271 271 270 270 269 269 268 267 266 265 265 264 263 262 262 262 263 263 263 263 262 261 261 262 263 264 263 262 261 259 258 259 259 260 261 262 261 261 260 259 258 257 255 254 253 251 250 250 249 249
266 266 265 265 265 265 265 266 266 266 267 268 268 269 269 270 270 271 271 270 270 270 270 270 270 270 271 271 271 271 271 271 271 271 271 271 271 270 270 269 268 268 267 266 265 264 263 262 262 261 261 261 262 262 262 261 260 260 259 260 261 262 262 261 260 258 258 258 259 260 260 260 259 258 257 256 255 254 253 252 251 250 249 249 249 250
265 265 265 265 264 265 265 265 266 266 267 267 268 268 269 269 270 270 270 270 270 270 270 270 270 270 271 271 271 271 271 272 271 271 271 270 270 269 269 268 267 266 265 264 263 262 261 261 260 260 260 260 260 261 261 260 260 259 259 259 260 261 261 260 258 256 256 256 257 257 257 257 256 255 254 253 252 251 250 250 249 249 249 249 249 249
264 264 264 264 264 264 265 265 265 266 266 267 267 268 268 269 269 269 269 269 269 270 270 270 270 270 271 271 271 272 272 271 271 271 271 270 269 269 268 267 266 265 264 263 261 260 260 259 259 259 259 259 259 259 260 260 260 260 259 259 260 260 259 258 256 254 254 254 254 254 253 253 252 252 252 251 250 250 249 249 249 249 249 249 249 248
263 263 263 263 263 263 264 264 265 265 266 266 267 267 267 268 268 268 269 269 269 269 270 270 270 270 271 271 272 272 272 271 271 270 270 269 269 268 267 266 264 263 262 261 260 259 258 258 258 258 258 259 259 259 260 261 261 260 260 259 259 258 256 255 253 251 250 250 249 249 249 250 250 250 250 249 249 249 248 248 248 248 248 247 247 246
262 262 262 262 262 263 263 264 264 264 265 265 266 266 266 267 267 267 268 268 269 269 269 270 270 270 271 271 271 271 271 270 270 270 270 269 268 267 265 264 263 262 260 259 258 258 257 257 258 258 259 259 260 260 261 261 261 260 259 257 256 254 252 250 248 247 246 246 245 246 247 247 248 248 249 249 248 248 248 248 247 246 246 245 245 244
262 261 261 261 261 261 262 263 263 263 264 264 265 265 265 266 266 266 267 267 268 268 269 269 270 270 270 271 271 271 270 270 269 269 269 268 266 265 264 262 261 260 259 258 257 256 256 257 257 258 259 260 260 261 261 260 259 258 257 255 252 249 247 245 244 243 243 243 244 245 246 246 247 248 248 248 248 247 247 246 245 245 244 243 243 244
261 261 260 260 260 260 261 262 262 263 263 263 264 264 265 265 265 266 266 267 267 268 268 269 269 270 270 270 270 270 269 269 269 268 268 266 265 263 262 260 259 258 257 256 255 255 255 256 256 257 258 259 259 259 259 258 257 255 254 251 248 245 243 242 241 241 242 243 244 245 245 246 246 247 247 247 246 246 245 244 244 243 243 243 243 244
260 260 259 259 259 259 260 261 261 262 262 263 263 264 264 265 265 265 266 266 267 267 268 268 269 269 269 269 269 269 269 268 268 268 267 265 263 261 260 258 257 256 255 254 254 254 255 255 256 256 257 257 257 257 257 255 254 252 250 247 245 242 241 241 241 242 243 244 245 245 245 245 245 245 245 245 245 244 244 243 243 243 243 243 244 245
260 259 259 258 258 258 259 260 260 261 262 262 263 263 264 264 265 265 265 266 266 267 267 267 268 268 269 268 268 268 268 268 267 266 265 263 261 259 258 256 255 254 253 253 254 254 255 255 256 256 256 256 255 255 254 252 250 248 245 243 241 240 240 241 242 243 244 244 244 244 244 244 244 244 244 243 243 243 243 243 243 243 244 245 245 246
259 259 258 258 257 257 258 259 259 260 261 261 262 263 263 264 264 264 265 265 265 266 266 267 267 268 268 268 267 267 267 267 266 264 262 260 258 256 255 254 253 252 252 253 253 254 254 255 255 256 255 255 254 252 250 248 246 244 242 241 240 240 241 242 243 244 244 244 244 243 243 243 243 243 242 242 242 242 243 243 243 244 245 246 246 247
258 258 258 257 257 257 257 258 258 259 260 261 262 262 263 263 264 264 264 264 265 265 266 266 267 267 267 267 267 266 266 265 263 261 259 257 255 254 253 252 252 251 252 252 253 253 254 254 255 255 255 254 252 250 247 245 243 241 241 240 241 242 243 244 244 244 244 244 243 243 242 242 242 242 242 242 242 242 243 243 244 245 246 246 247 248
257 258 257 257 256 256 256 257 258 258 259 260 261 261 262 262 263 263 263 264 264 265 265 266 266 266 266 266 265 265 264 262 260 258 256 254 253 252 252 252 252 252 252 252 252 252 253 253 254 254 253 251 249 246 244 242 241 240 241 242 243 244 245 245 245 244 244 243 243 242 242 242 242 242 242 242 243 243 244 244 245 246 246 247 248 248
256 257 257 257 256 256 256 256 257 258 259 259 260 261 261 262 262 262 263 263 263 264 264 265 265 265 265 264 263 262 261 259 257 255 254 253 253 253 252 252 252 252 252 252 252 252 253 253 253 253 251 248 245 243 241 240 240 241 242 243 244 245 245 245 245 244 243 243 242 242 242 242 242 242 243 243 243 244 244 245 246 246 247 248 248 249
256 257 257 257 256 256 256 256 257 257 258 259 259 260 260 261 261 262 262 262 263 263 264 264 264 264 263 262 261 259 257 256 255 254 253 253 254 254 254 254 254 253 253 252 252 253 253 253 253 252 249 246 242 240 239 240 240 242 243 244 245 244 244 244 244 243 243 242 242 242 242 243 243 243 243 244 244 245 245 246 246 247 247 248 248 248
254 256 256 257 257 257 257 257 257 258 258 258 258 259 260 260 261 261 261 262 262 263 263 263 262 262 261 260 258 257 255 253 253 253 253 254 254 254 254 254 253 253 252 252 252 253 254 253 252 249 246 243 240 239 239 240 241 242 243 243 243 243 242 242 242 242 242 242 242 242 243 243 243 244 244 244 245 245 246 246 247 247 247 248 248 248
250 251 252 253 255 257 258 258 258 258 258 258 258 258 259 259 260 260 261 261 262 262 262 261 261 260 258 257 256 254 253 252 252 252 253 253 253 253 252 252 251 251 252 252 252 252 253 252 250 246 243 240 239 238 239 240 241 242 243 242 242 241 240 241 241 241 241 242 242 243 243 243 243 244 244 245 245 246 247 247 247 247 248 248 249 249
245 245 246 248 251 253 256 258 259 258 258 257 257 258 258 259 260 260 260 261 261 261 260 260 259 258 256 254 253 253 252 252 252 252 253 253 252 251 250 249 249 250 251 251 251 251 251 249 246 243 240 239 238 238 239 240 241 241 241 241 240 240 239 240 241 241 242 242 243 243 243 244 244 244 245 245 246 246 247 247 248 248 249 249 250 251
241 242 243 245 247 250 254 257 258 259 258 257 257 257 258 258 259 260 260 260 260 260 259 258 257 255 253 252 251 251 251 251 252 252 252 251 250 249 248 248 249 250 251 251 251 249 247 244 242 240 238 237 238 238 239 240 240 240 240 239 239 239 240 240 241 242 242 243 243 244 244 245 245 245 245 246 246 247 247 248 249 249 250 251 252 252
240 241 243 245 247 249 253 256 258 258 258 257 257 257 258 258 259 259 259 259 259 258 257 256 255 252 250 249 249 249 250 250 251 251 251 250 249 248 248 248 249 249 250 250 248 246 243 241 239 237 237 237 238 238 239 239 239 239 238 239 239 240 240 241 242 243 243 244 244 245 245 245 246 246 246 246 247 247 248 249 249 250 251 252 253 254
238 240 243 246 247 250 253 255 257 258 257 256 256 256 257 258 259 259 259 258 258 257 255 254 252 250 248 247 247 247 248 249 250 250 249 248 247 247 248 248 249 248 248 247 244 242 240 238 236 236 236 237 237 238 238 238 238 238 238 239 240 241 242 243 243 244 244 244 245 245 246 246 247 247 247 247 248 248 249 250 250 251 252 253 254 255
236 239 242 245 247 249 252 255 256 256 256 255 256 256 258 258 259 259 258 258 257 255 254 252 250 247 246 245 246 247 248 249 249 248 248 247 247 247 248 248 247 247 245 243 241 239 237 235 235 235 235 236 236 236 237 237 237 238 238 239 240 242 243 243 244 245 245 245 246 246 247 247 248 248 248 249 249 249 250 250 251 251 252 253 254 255
235 237 240 243 246 249 252 254 255 255 255 255 256 257 258 259 259 259 258 257 255 254 252 249 246 244 244 244 246 247 248 248 248 247 247 246 247 247 247 246 245 244 242 240 238 236 235 234 234 234 234 235 235 235 236 236 237 238 239 240 241 243 243 244 245 246 246 247 247 248 248 249 250 250 250 250 250 251 251 251 251 252 252 253 254 255
233 235 237 240 244 249 252 254 255 255 255 256 257 258 259 259 259 258 257 255 254 252 250 247 244 242 243 244 246 247 248 248 248 247 246 246 246 247 246 245 243 241 239 237 235 234 233 233 232 233 233 234 235 235 236 237 238 239 240 241 242 243 244 245 246 247 248 249 249 250 251 251 252 252 252 252 252 252 252 252 252 253 253 254 255 256
231 232 234 237 242 247 250 252 253 255 256 258 259 259 259 258 257 256 255 254 252 250 247 245 242 242 243 244 246 247 248 248 247 246 246 246 246 245 244 243 240 238 236 234 233 232 232 231 232 232 233 234 234 235 236 238 239 240 242 242 243 244 245 245 247 248 249 250 251 252 253 253 254 254 254 254 254 254 254 254 254 255 255 256 256 258
Height
5682 5682 5681 5681 5681 5681 5680 5680 5680 5679 5678 5678 5677 5677 5677 5677 5678 5678 5679 5679 5679 5679 5679 5678 5678 5678 5678 5678 5678 5677 5677 5676 5675 5675 5674 5674 5673 5673 5673 5672 5672 5672 5672 5672 5671 5671 5671 5670 5670 5670 5669 5669 5669 5669 5669 5669 5669 5669 5669 5670 5670 5670 5670 5670 5670 5670 5670 5669 5669 5669 5669 5669 5670 5670 5670 5670 5671 5671 5671 5671 5671 5671 5671 5672 5672 5672
5678 5677 5677 5677 5677 5676 5676 5675 5675 5675 5674 5673 5672 5672 5672 5673 5673 5673 5674 5674 5674 5674 5674 5674 5674 5674 5674 5674 5673 5673 5673 5672 5671 5671 5670 5670 5669 5669 5669 5668 5668 5668 5668 5668 5668 5667 5667 5666 5666 5666 5666 5666 5666 5666 5666 5666 5666 5666 5666 5666 5666 5667 5667 5667 5667 5667 5667 5666 5666 5666 5666 5666 5667 5667 5667 5667 5668 5668 5668 5668 5668 5669 5669 5669 5670 5670
5674 5674 5673 5672 5672 5672 5671 5671 5671 5671 5670 5669 5668 5668 5668 5668 5668 5668 5669 5669 5669 5669 5670 5670 5670 5670 5669 5669 5669 5669 5669 5668 5667 5667 5666 5666 5665 5665 5664 5664 5664 5664 5664 5664 5664 5663 5663 5663 5662 5662 5662 5662 5662 5662 5662 5662 5662 5662 5663 5663 5663 5663 5664 5664 5664 5664 5664 5663 5663 5663 5663 5664 5664 5664 5664 5665 5665 5665 5665 5666 5666 5666 5666 5667 5667 5667
5670 5670 5669 5668 5668 5668 5667 5667 5666 5666 5666 5665 5664 5664 5663 5664 5664 5664 5664 5664 5665 5665 5665 5665 5665 5665 5665 5665 5665 5664 5664 5664 5663 5663 5662 5661 5661 5661 5660 5660 5660 5660 5660 5660 5660 5660 5659 5659 5659 5659 5659 5659 5659 5659 5659 5659 5659 5659 5659 5660 5660 5660 5660 5660 5661 5661 5661 5660 5660 5660 5660 5661 5661 5661 5661 5662 5662 5662 5663 5663 5663 5663 5664 5664 5665 5665
5665 5665 5664 5664 5664 5663 5662 5662 5662 5661 5661 5660 5660 5659 5659 5659 5659 5659 5659 5660 5660 5660 5660 5661 5661 5661 5661 5660 5660 5660 5660 5660 5659 5659 5658 5657 5657 5657 5656 5656 5656 5656 5656 5656 5656 5656 5656 5656 5655 5655 5655 5655 5655 5655 5656 5656 5656 5656 5656 5656 5656 5657 5657 5657 5657 5657 5657 5657 5657 5657 5657 5658 5658 5658 5659 5659 5659 5660 5660 5660 5661 5661 5661 5662 5662 5662
5659 5660 5660 5659 5659 5658 5657 5657 5657 5657 5656 5656 5655 5655 5655 5655 5655 5655 5655 5655 5656 5656 5656 5656 5656 5656 5656 5656 5656 5656 5656 5656 5655 5655 5654 5654 5653 5653 5652 5652 5652 5652 5652 5652 5652 5652 5652 5652 5652 5652 5652 5652 5652 5652 5652 5652 5653 5653 5653 5653 5653 5653 5654 5654 5654 5654 5654 5654 5654 5654 5655 5655 5655 5656 5656 5656 5656 5657 5657 5657 5658 5658 5659 5659 5660 5660
5654 5655 5655 5655 5654 5653 5653 5652 5652 5652 5651 5651 5651 5651 5651 5651 5651 5650 5650 5650 5651 5651 5652 5652 5652 5652 5652 5652 5652 5652 5652 5652 5651 5651 5651 5650 5649 5649 5649 5648 5648 5648 5648 5648 5648 5648 5648 5648 5648 5648 5648 5648 5649 5649 5649 5649 5649 5650 5650 5650 5650 5650 5650 5651 5651 5651 5651 5651 5651 5651 5651 5652 5652 5653 5653 5653 5654 5654 5655 5655 5655 5656 5656 5656 5657 5657
5650 5650 5651 5651 5650 5649 5648 5648 5647 5647 5647 5647 5646 5646 5646 5646 5646 5646 5646 5646 5646 5647 5647 5648 5648 5648 5648 5648 5648 5648 5648 5648 5647 5647 5646 5646 5646 5645 5645 5645 5645 5645 5645 5645 5645 5645 5645 5645 5645 5645 5645 5645 5646 5646 5646 5646 5646 5646 5647 5647 5647 5647 5647 5647 5647 5647 5648 5648 5648 5648 5649 5649 5649 5650 5650 5651 5651 5651 5652 5652 5653 5653 5653 5654 5654 5654
5646 5646 5646 5646 5646 5645 5644 5643 5642 5642 5642 5643 5642 5642 5642 5642 5642 5642 5642 5642 5642 5643 5643 5644 5644 5643 5643 5644 5645 5645 5644 5644 5644 5643 5643 5642 5642 5641 5641 5641 5641 5641 5641 5641 5641 5641 5641 5641 5641 5641 5642 5642 5642 5642 5643 5643 5643 5643 5644 5644 5644 5644 5644 5644 5644 5644 5645 5645 5645 5645 5646 5646 5646 5647 5647 5648 5648 5649 5649 5650 5650 5650 5651 5651 5651 5651
5641 5642 5642 5642 5641 5641 5641 5640 5638 5637 5637 5638 5638 5638 5638 5638 5638 5638 5638 5638 5638 5639 5640 5640 5640 5640 5640 5640 5640 5641 5641 5640 5640 5639 5639 5638 5638 5638 5638 5637 5637 5637 5637 5637 5637 5637 5637 5638 5638 5638 5638 5639 5639 5639 5640 5640 5640 5640 5640 5641 5641 5641 5641 5641 5641 5641 5641 5642 5642 5642 5643 5643 5643 5644 5644 5645 5645 5646 5646 5647 5647 5647 5648 5648 5648 5649
5637 5638 5638 5638 5638 5637 5636 5636 5635 5633 5633 5634 5634 5634 5634 5634 5634 5634 5634 5634 5634 5635 5636 5636 5636 5636 5636 5636 5636 5636 5636 5636 5636 5636 5635 5635 5635 5634 5634 5634 5634 5634 5634 5634 5634 5634 5634 5635 5635 5635 5635 5636 5636 5636 5636 5636 5637 5637 5637 5637 5638 5638 5638 5638 5638 5638 5638 5639 5639 5639 5640 5640 5641 5641 5641 5642 5642 5643 5643 5644 5644 5645 5645 5645 5646 5646
5633 5633 5634 5634 5634 5633 5632 5632 5631 5630 5630 5630 5630 5630 5629 5629 5630 5631 5631 5631 5630 5631 5632 5632 5632 5632 5633 5633 5633 5632 5632 5632 5632 5631 5631 5631 5631 5631 5631 5630 5630 5630 5630 5630 5630 5631 5631 5631 5631 5632 5632 5632 5633 5633 5633 5633 5634 5634 5634 5634 5635 5635 5635 5635 5635 5635 5636 5636 5636 5636 5637 5637 5638 5638 5639 5639 5640 5640 5641 5641 5641 5641 5642 5642 5643 5643
5629 5629 5629 5630 5629 5629 5628 5628 5627 5626 5626 5626 5626 5626 5626 5626 5626 5627 5628 5628 5627 5627 5628 5628 5628 5628 5628 5629 5629 5629 5629 5628 5628 5627 5627 5627 5627 5627 5627 5627 5627 5627 5627 5627 5627 5627 5628 5628 5628 5629 5629 5629 5629 5630 5630 5630 5631 5631 5631 5631 5631 5631 5631 5632 5632 5632 5632 5633 5633 5634 5634 5635 5635 5636 5636 5636 5637 5637 5638 5638 5638 5639 5639 5640 5640 5641
5625 5625 5625 5625 5625 5625 5624 5624 5623 5623 5622 5622 5622 5623 5623 5623 5623 5624 5624 5624 5624 5624 5624 5625 5625 5625 5625 5625 5626 5626 5626 5625 5624 5624 5624 5624 5624 5624 5624 5624 5623 5623 5624 5624 5624 5624 5625 5625 5625 5626 5626 5626 5626 5626 5627 5627 5627 5628 5628 5628 5628 5628 5628 5629 5629 5629 5630 5630 5631 5631 5631 5632 5632 5633 5633 5634 5634 5635 5635 5635 5636 5636 5636 5637 5637 5638
5620 5621 5621 5621 5621 5620 5620 5620 5620 5619 5618 5618 5619 5620 5620 5620 5620 5620 5621 5621 5621 5621 5621 5622 5622 5621 5621 5621 5622 5622 5622 5621 5621 5621 5621 5620 5620 5621 5621 5621 5620 5620 5621 5621 5621 5621 5622 5622 5622 5623 5623 5623 5623 5624 5624 5624 5625 5625 5625 5625 5625 5625 5626 5626 5626 5626 5627 5627 5628 5628 5629 5629 5629 5630 5630 5631 5631 5632 5632 5632 5632 5633 5633 5634 5635 5636
5616 5617 5617 5617 5616 5616 5616 5616 5616 5616 5615 5615 5616 5616 5616 5616 5616 5616 5617 5617 5617 5617 5617 5617 5618 5618 5618 5618 5618 5619 5618 5617 5617 5617 5617 5617 5617 5617 5618 5617 5617 5617 5618 5618 5618 5618 5619 5619 5620 5620 5620 5620 5621 5621 5621 5621 5621 5622 5622 5622 5622 5622 5623 5623 5623 5624 5624 5625 5625 5625 5626 5626 5627 5627 5628 5628 5628 5629 5629 5629 5630 5630 5631 5631 5632 5633
5612 5613 5613 5613 5612 5612 5612 5612 5612 5612 5611 5611 5612 5612 5613 5613 5613 5613 5613 5613 5613 5613 5613 5613 5614 5614 5614 5614 5615 5615 5615 5614 5613 5613 5614 5614 5614 5614 5615 5614 5614 5614 5615 5615 5616 5616 5616 5616 5617 5617 5617 5617 5618 5618 5618 5618 5619 5619 5619 5619 5619 5620 5620 5620 5621 5621 5621 5622 5622 5622 5623 5623 5624 5625 5625 5625 5626 5626 5626 5626 5627 5627 5628 5629 5629 5630
5608 5609 5609 5609 5609 5608 5608 5609 5609 5609 5608 5609 5609 5609 5609 5609 5610 5610 5610 5610 5610 5610 5610 5610 5610 5611 5611 5611 5611 5611 5612 5611 5610 5610 5611 5611 5611 5611 5611 5611 5611 5611 5612 5612 5612 5613 5613 5613 5614 5614 5614 5615 5615 5615 5615 5616 5616 5616 5616 5616 5616 5617 5617 5617 5618 5618 5618 5619 5619 5620 5620 5621 5621 5622 5622 5623 5623 5623 5623 5623 5624 5625 5625 5626 5626 5627
5605 5605 5606 5606 5605 5605 5605 5606 5606 5606 5606 5606 5606 5606 5606 5606 5606 5606 5606 5606 5606 5606 5606 5606 5606 5607 5607 5607 5606 5607 5608 5608 5607 5607 5608 5608 5608 5608 5608 5609 5609 5609 5609 5610 5610 5610 5610 5610 5611 5611 5611 5612 5612 5612 5612 5612 5613 5613 5613 5614 5614 5614 5614 5615 5615 5615 5616 5616 5616 5617 5618 5618 5619 5619 5620 5620 5620 5621 5621 5621 5621 5622 5622 5623 5624 5625
5601 5601 5602 5602 5602 5602 5602 5602 5603 5603 5603 5602 5603 5603 5603 5603 5603 5603 5603 5603 5603 5603 5603 5603 5603 5603 5603 5603 5603 5603 5604 5604 5604 5604 5605 5605 5605 5605 5606 5606 5606 5606 5606 5607 5607 5607 5607 5607 5608 5608 5609 5609 5609 5609 5609 5610 5610 5610 5611 5611 5611 5611 5611 5612 5612 5612 5613 5613 5614 5614 5615 5616 5616 5616 5617 5617 5617 5618 5618 5618 5619 5619 5620 5621 5621 5622
5597 5597 5598 5598 5599 5599 5598 5599 5599 5599 5599 5599 5599 5600 5600 5600 5600 5600 5600 5600 5600 5599 5600 5600 5599 5599 5600 5600 5599 5599 5600 5601 5601 5601 5601 5602 5602 5602 5603 5603 5603 5603 5604 5604 5604 5604 5604 5604 5605 5605 5606 5606 5606 5606 5606 5607 5607 5607 5608 5608 5608 5608 5609 5609 5609 5610 5610 5611 5611 5611 5612 5613 5613 5613 5614 5614 5615 5615 5616 5616 5616 5617 5617 5618 5619 5620
5593 5593 5594 5594 5595 5595 5595 5595 5595 5595 5595 5595 5595 5596 5596 5596 5596 5596 5596 5596 5596 5596 5596 5596 5596 5596 5596 5596 5596 5596 5597 5597 5598 5598 5599 5599 5599 5600 5600 5601 5601 5601 5601 5601 5601 5601 5601 5601 5602 5602 5603 5603 5603 5603 5604 5604 5604 5605 5605 5605 5605 5606 5606 5606 5606 5607 5607 5608 5608 5609 5609 5610 5610 5611 5611 5612 5612 5612 5613 5613 5614 5614 5615 5616 5617 5617
5589 5589 5590 5590 5591 5591 5591 5591 5591 5591 5591 5591 5591 5591 5592 5592 5592 5592 5592 5593 5593 5593 5593 5593 5593 5593 5593 5593 5593 5593 5594 5594 5595 5595 5596 5596 5596 5596 5597 5597 5598 5598 5598 5599 5598 5598 5598 5599 5599 5600 5600 5600 5600 5601 5601 5601 5601 5602 5602 5602 5602 5603 5603 5603 5604 5604 5604 5605 5606 5606 5606 5607 5607 5608 5608 5609 5609 5610 5610 5611 5611 5612 5613 5614 5614 5615
5585 5586 5586 5586 5587 5587 5587 5587 5587 5587 5587 5587 5587 5587 5588 5588 5589 5589 5589 5589 5590 5590 5589 5589 5590 5590 5590 5590 5590 5590 5591 5591 5592 5592 5593 5593 5593 5594 5594 5595 5595 5595 5596 5596 5596 5596 5596 5596 5596 5597 5597 5597 5597 5598 5598 5599 5599 5599 5599 5600 5600 5600 5600 5601 5601 5601 5602 5602 5603 5603 5604 5604 5605 5605 5605 5606 5606 5607 5607 5608 5609 5610 5610 5611 5612 5613
5581 5581 5582 5582 5583 5583 5583 5584 5584 5584 5584 5584 5584 5584 5584 5585 5585 5585 5586 5586 5586 5586 5586 5586 5586 5586 5587 5588 5588 5588 5588 5588 5589 5589 5590 5590 5590 5591 5591 5591 5592 5592 5593 5593 5593 5593 5593 5593 5594 5594 5594 5594 5595 5595 5596 5596 5596 5596 5597 5597 5597 5597 5598 5598 5598 5599 5599 5600 5601 5601 5601 5601 5602 5602 5602 5603 5603 5604 5605 5606 5606 5607 5608 5609 5610 5611
5577 5578 5578 5579 5579 5580 5580 5580 5580 5580 5580 5580 5580 5581 5581 5581 5581 5582 5582 5583 5583 5583 5583 5583 5583 5583 5584 5585 5585 5585 5585 5586 5586 5586 5587 5587 5587 5588 5588 5588 5589 5589 5590 5590 5590 5590 5590 5590 5591 5591 5591 5591 5592 5592 5593 5593 5594 5594 5594 5595 5595 5595 5596 5596 5596 5596 5597 5597 5598 5598 5598 5599 5599 5599 5600 5600 5601 5601 5602 5603 5604 5605 5606 5607 5608 5608
5573 5574 5574 5575 5575 5576 5576 5576 5576 5576 5576 5577 5577 5577 5577 5578 5578 5579 5579 5580 5580 5580 5580 5580 5580 5581 5581 5581 5582 5582 5583 5583 5583 5584 5584 5585 5585 5585 5585 5586 5586 5586 5586 5586 5587 5587 5587 5587 5588 5588 5589 5589 5589 5590 5590 5591 5591 5591 5592 5592 5592 5593 5593 5593 5594 5594 5595 5595 5595 5596 5596 5596 5596 5597 5597 5598 5599 5599 5600 5601 5602 5603 5604 5605 5606 5606
5569 5570 5570 5571 5571 5572 5572 5572 5573 5573 5573 5573 5574 5574 5574 5575 5575 5575 5576 5576 5576 5576 5576 5577 5577 5578 5578 5579 5579 5579 5580 5580 5581 5581 5581 5581 5581 5581 5582 5582 5583 5583 5584 5584 5584 5584 5585 5585 5585 5586 5586 5586 5587 5587 5587 5588 5588 5589 5589 5589 5590 5590 5591 5591 5591 5592 5592 5592 5592 5593 5593 5593 5594 5594 5595 5596 5596 5597 5598 5599 5600 5601 5602 5602 5603 5604
5565 5566 5566 5567 5567 5568 5568 5569 5569 5569 5570 5570 5570 5571 5571 5571 5572 5572 5572 5573 5573 5573 5573 5574 5574 5575 5575 5576 5576 5576 5577 5577 5577 5578 5578 5578 5578 5578 5579 5580 5580 5580 5581 5581 5581 5581 5582 5582 5582 5583 5583 5584 5584 5584 5585 5585 5586 5586 5586 5587 5587 5587 5588 5588 5588 5589 5589 5590 5590 5590 5591 5591 5592 5592 5593 5594 5595 5596 5596 5597 5598 5599 5600 5600 5601 5601
5561 5561 5562 5563 5564 5564 5565 5565 5566 5566 5566 5566 5567 5567 5567 5568 5568 5569 5569 5570 5570 5570 5570 5571 5571 5572 5572 5573 5573 5573 5574 5574 5574 5574 5575 5575 5575 5575 5576 5576 5577 5577 5578 5578 5578 5579 5579 5580 5580 5580 5581 5581 5581 5582 5582 5582 5583 5583 5584 5584 5584 5585 5585 5585 5586 5586 5586 5587 5587 5588 5588 5589 5590 5591 5591 5592 5593 5594 5595 5595 5596 5596 5597 5598 5599 5599
5557 5558 5558 5559 5560 5560 5561 5561 5562 5562 5563 5563 5564 5564 5564 5565 5565 5565 5566 5566 5567 5567 5567 5568 5568 5569 5569 5570 5570 5570 5570 5571 5571 5571 5571 5571 5572 5572 5573 5573 5574 5574 5575 5575 5575 5576 5576 5577 5577 5578 5578 5578 5579 5579 5579 5580 5580 5581 5581 5581 5581 5582 5582 5582 5583 5583 5584 5584 5585 5586 5586 5587 5588 5589 5589 5590 5591 5591 5592 5593 5594 5594 5595 5596 5596 5597
5553 5554 5554 5555 5556 5556 5557 5557 5558 5559 5559 5560 5560 5561 5561 5561 5562 5562 5563 5563 5563 5564 5564 5565 5565 5566 5566 5566 5566 5567 5567 5567 5568 5568 5568 5569 5569 5570 5570 5570 5571 5571 5572 5572 5573 5573 5574 5574 5575 5575 5575 5576 5576 5576 5577 5577 5577 5578 5578 5578 5579 5579 5579 5580 5580 5581 5581 5582 5582 5583 5584 5585 5586 5586 5587 5588 5589 5590 5590 5591 5591 5592 5593 5593 5594 5595
5548 5549 5550 5551 5552 5552 5553 5554 5554 5555 5556 5556 5556 5557 5557 5558 5558 5559 5559 5560 5560 5561 5561 5562 5562 5563 5563 5563 5563 5564 5564 5564 5565 5565 5565 5566 5566 5566 5567 5567 5568 5568 5569 5570 5570 5571 5571 5571 5572 5572 5573 5573 5574 5574 5574 5575 5575 5575 5575 5576 5576 5576 5577 5577 5578 5578 5579 5580 5580 5581 5582 5583 5584 5584 5585 5586 5586 5587 5588 5589 5589 5590 5591 5591 5592 5593
5544 5545 5546 5547 5548 5549 5550 5550 5551 5551 5552 5553 5553 5553 5554 5555 5555 5556 5556 5556 5557 5557 5558 5558 5559 5559 5560 5560 5560 5560 5561 5561 5561 5562 5562 5562 5563 5563 5564 5565 5565 5566 5566 5567 5567 5568 5568 5568 5569 5570 5571 5571 5571 5571 5571 5572 5572 5572 5573 5573 5573 5574 5574 5575 5576 5576 5577 5577 5578 5579 5580 5581 5581 5582 5583 5584 5584 5585 5586 5586 5587 5588 5588 5589 5590 5591
5540 5541 5542 5543 5544 5545 5546 5546 5547 5548 5548 5549 5549 5550 5551 5551 5552 5552 5553 5553 5554 5554 5554 5555 5556 5556 5556 5556 5557 5557 5557 5558 5558 5559 5559 5559 5560 5560 5561 5561 5562 5563 5563 5564 5564 5565 5565 5566 5566 5567 5568 5568 5569 5569 5569 5569 5569 5570 5570 5571 5571 5571 5572 5573 5573 5574 5575 5576 5576 5577 5578 5578 5579 5580 5581 5581 5582 5583 5584 5584 5585 5586 5586 5587 5588 5588
5536 5537 5538 5540 5541 5541 5542 5543 5544 5544 5545 5545 5546 5546 5547 5548 5548 5549 5549 5550 5550 5551 5551 5551 5552 5552 5553 5553 5554 5554 5554 5554 5555 5556 5556 5556 5557 5557 5558 5559 5560 5560 5561 5561 5561 5562 5562 5563 5564 5565 5565 5565 5566 5566 5566 5566 5567 5567 5568 5568 5569 5570 5570 5571 5571 5572 5573 5573 5574 5575 5576 5576 5577 5578 5579 5579 5580 5581 5581 5582 5583 5583 5584 5585 5586 5586
5531 5533 5534 5536 5536 5537 5538 5539 5540 5541 5541 5541 5542 5543 5544 5544 5545 5546 5546 5546 5547 5547 5548 5548 5549 5549 5549 5550 5550 5550 5551 5551 5552 5553 5553 5553 5554 5554 5555 5556 5556 5557 5558 5558 5559 5559 5560 5560 5561 5561 5562 5562 5563 5563 5564 5564 5565 5565 5566 5566 5567 5568 5568 5569 5569 5570 5571 5571 5572 5573 5573 5574 5575 5576 5576 5577 5578 5579 5579 5580 5581 5581 5582 5583 5583 5584
5527 5529 5530 5531 5532 5533 5534 5535 5536 5537 5537 5538 5539 5539 5540 5541 5541 5542 5542 5543 5543 5544 5544 5545 5545 5546 5546 5546 5546 5547 5547 5548 5549 5550 5550 5550 5551 5551 5552 5553 5553 5554 5555 5555 5556 5557 5557 5558 5558 5559 5559 5560 5561 5561 5562 5562 5563 5563 5564 5564 5565 5566 5566 5567 5567 5568 5568 5569 5570 5571 5571 5572 5573 5574 5574 5575 5576 5576 5577 5578 5578 5579 5580 5581 5581 5582
5523 5525 5526 5527 5528 5530 5531 5531 5532 5533 5533 5534 5535 5536 5536 5537 5538 5538 5539 5540 5540 5541 5541 5541 5542 5542 5542 5543 5543 5544 5545 5545 5546 5546 5547 5547 5548 5548 5549 5550 5551 5551 5552 5552 5553 5554 5555 5555 5556 5556 5556 5557 5558 5559 5559 5560 5561 5561 5562 5562 5563 5563 5564 5565 5565 5566 5566 5567 5568 5568 5569 5570 5571 5571 5572 5573 5573 5574 5575 5576 5576 5577 5577 5578 5579 5580
5519 5521 5522 5523 5525 5526 5526 5527 5528 5529 5530 5530 5531 5532 5532 5533 5534 5535 5536 5536 5536 5537 5537 5538 5538 5539 5539 5540 5540 5541 5541 5542 5543 5543 5544 5544 5545 5545 5546 5547 5548 5548 5549 5550 5551 5551 5552 5553 5553 5554 5554 5555 5556 5556 5557 5558 5559 5559 5560 5561 5561 5562 5562 5562 5563 5564 5564 5565 5566 5566 5567 5568 5569 5569 5570 5571 5571 5572 5572 5573 5574 5575 5575 5576 5576 5577
5516 5517 5518 5520 5521 5522 5523 5524 5524 5525 5526 5526 5527 5528 5529 5530 5531 5531 5532 5532 5533 5534 5534 5535 5535 5535 5536 5536 5537 5538 5538 5539 5540 5540 5541 5541 5542 5542 5543 5544 5545 5546 5546 5547 5548 5549 5550 5550 5551 5551 5552 5553 5553 5554 5555 5556 5556 5557 5558 5558 5559 5560 5560 5560 5561 5561 5562 5563 5564 5564 5565 5566 5566 5567 5568 5568 5569 5570 5570 5571 5571 5572 5573 5573 5574 5575
5512 5514 5516 5516 5517 5518 5519 5520 5521 5521 5522 5523 5524 5525 5526 5526 5527 5528 5529 5529 5530 5530 5531 5531 5531 5532 5533 5533 5534 5535 5535 5536 5536 5537 5538 5538 5539 5540 5541 5541 5542 5543 5544 5545 5546 5546 5547 5548 5548 5549 5550 5550 5551 5551 5552 5553 5554 5555 5556 5556 5557 5557 5558 5558 5559 5559 5560 5561 5561 5562 5563 5563 5564 5565 5566 5566 5567 5567 5568 5569 5569 5570 5571 5571 5572 5572
5509 5511 5513 5514 5514 5514 5515 5516 5517 5518 5518 5519 5520 5521 5522 5523 5524 5524 5525 5526 5526 5527 5527 5528 5528 5529 5530 5530 5531 5531 5532 5533 5534 5534 5535 5536 5537 5537 5538 5539 5540 5541 5541 5542 5543 5544 5544 5545 5546 5547 5547 5548 5549 5549 5550 5551 5552 5553 5553 5554 5555 5555 5556 5556 5557 5557 5558 5559 5559 5560 5561 5561 5562 5563 5563 5564 5564 5565 5566 5566 5567 5567 5568 5569 5569 5570
5506 5509 5510 5511 5511 5511 5511 5512 5513 5514 5515 5516 5517 5518 5519 5519 5520 5521 5521 5522 5523 5524 5524 5525 5525 5526 5526 5527 5528 5529 5529 5530 5531 5531 5532 5533 5534 5535 5536 5536 5537 5538 5539 5540 5541 5541 5542 5543 5544 5544 5545 5546 5546 5547 5548 5549 5550 5551 5551 5551 5552 5553 5553 5554 5555 5555 5556 5556 5557 5558 5558 5559 5560 5560 5561 5561 5562 5563 5563 5564 5564 5565 5566 5566 5567 5567
5501 5504 5506 5506 5506 5507 5508 5509 5510 5511 5512 5513 5514 5515 5515 5516 5516 5517 5518 5519 5520 5520 5521 5521 5522 5522 5523 5524 5525 5526 5527 5527 5528 5529 5530 5531 5532 5532 5533 5534 5535 5535 5536 5537 5538 5539 5540 5541 5541 5542 5543 5543 5544 5545 5546 5546 5547 5548 5549 5549 5550 5551 5551 5552 5552 5553 5553 5554 5555 5555 5556 5556 5557 5558 5559 5559 5560 5561 5561 5561 5562 5562 5563 5564 5564 5565
5497 5499 5501 5502 5503 5504 5505 5506 5507 5508 5509 5510 5511 5511 5512 5512 5513 5514 5514 5515 5516 5517 5517 5518 5519 5519 5520 5521 5522 5523 5524 5525 5526 5527 5527 5528 5529 5530 5531 5531 5532 5533 5534 5534 5535 5536 5537 5538 5539 5540 5541 5541 5542 5543 5544 5545 5545 5546 5547 5547 5548 5548 5549 5549 5550 5551 5551 5552 5552 5553 5554 5554 5555 5556 5556 5557 5557 5558 5558 5559 5560 5560 5561 5561 5561 5562
5492 5496 5498 5499 5499 5500 5501 5502 5503 5504 5505 5506 5507 5508 5508 5509 5509 5510 5511 5512 5513 5514 5514 5515 5516 5516 5517 5518 5519 5521 5521 5522 5523 5524 5525 5526 5526 5527 5528 5529 5530 5531 5531 5532 5533 5534 5535 5536 5536 5537 5538 5539 5540 5541 5541 5542 5543 5544 5544 5545 5546 5546 5547 5547 5548 5548 5549 5549 5550 5551 5551 5552 5552 5553 5554 5555 5555 5556 5556 5556 5557 5558 5558 5559 5559 5560
5489 5492 5494 5495 5496 5496 5497 5499 5500 5501 5502 5503 5503 5504 5505 5505 5506 5507 5508 5509 5510 5510 5511 5512 5512 5513 5515 5516 5517 5518 5519 5520 5521 5522 5523 5524 5524 5525 5526 5526 5527 5528 5529 5530 5531 5531 5532 5533 5534 5535 5536 5537 5537 5538 5539 5540 5541 5541 5542 5543 5543 5544 5545 5545 5545 5546 5546 5547 5547 5548 5549 5549 5550 5551 5551 5552 5553 5553 5554 5554 5555 5555 5556 5556 5556 5557
5485 5488 5491 5491 5492 5492 5493 5495 5496 5497 5498 5499 5500 5501 5501 5502 5503 5504 5505 5505 5506 5507 5508 5509 5510 5511 5512 5513 5514 5515 5516 5517 5518 5519 5521 5521 5522 5523 5523 5524 5525 5526 5526 5527 5528 5529 5530 5531 5532 5533 5533 5534 5535 5536 5537 5538 5539 5539 5540 5540 5541 5542 5542 5543 5543 5543 5544 5544 5545 5546 5546 5547 5547 5548 5549 5550 5550 5551 5551 5552 5552 5552 5553 5553 5554 5554
5481 5484 5486 5488 5488 5489 5490 5492 5493 5494 5495 5496 5496 5497 5498 5499 5500 5500 5501 5502 5503 5504 5505 5506 5507 5508 5509 5510 5511 5513 5514 5515 5516 5517 5518 5519 5520 5520 5521 5522 5523 5524 5525 5525 5526 5527 5528 5529 5530 5531 5531 5532 5533 5534 5535 5536 5536 5537 5537 5538 5539 5539 5540 5540 5541 5541 5541 5542 5542 5543 5544 5544 5545 5546 5546 5547 5547 5548 5549 5549 5549 5550 5550 5551 5551 5551
5476 5480 5482 5484 5486 5486 5487 5488 5490 5491 5492 5493 5493 5494 5495 5496 5496 5497 5498 5499 5500 5501 5502 5503 5504 5505 5506 5508 5509 5510 5511 5512 5513 5514 5515 5516 5517 5518 5519 5520 5521 5521 5522 5523 5524 5525 5526 5527 5527 5528 5529 5530 5531 5532 5532 5533 5534 5535 5535 5536 5536 5537 5537 5538 5538 5539 5539 5539 5540 5541 5541 5542 5542 5543 5543 5544 5545 5545 5546 5546 5546 5547 5547 5548 5548 5548